SCP
0 0 0 0 0 0 0 0 0 0 0 0 0 0 -0 -0 -0 -0 -0 0 -0 -0 0 -0 0 0 0 0 0 0 0 0 0 0 0 0 0 0 0 0 0 0 0 0 0 0 0 0 0 0 0 0 0 0
0 0 0 0 0 0 0 0 0 0 0 0 0 0 0 0 -0 -0 -0 0 0 -0 0 0 -0 0 0 0 0 0 0 0 0 0 0 0 0 0 0 0 0 0 0 0 0 0 0 0 0 0 0 0 0 0
0 0 0 0 0 0 0 0 0 0 0 0 0 0 0 0 -0 -0 -0 -0 -0 -0 0 0 0 0 0 0 0 -0 0 -0 -0 0 0 0 0 0 0 0 0 0 0 0 0 0 0 0 0 0 0 0 0 0
0 0 0 0 0 0 0 0 0 0 0 0 0 0 0 0 -0 -0 -0 -0 -0 -0 0 0 0 0 0 0 0 -0 -0 -0 -0 -0 -0 0 0 0 0 0 0 0 0 0 0 0 0 0 0 0 0 0 0 0
0 0 0 0 0 0 0 0 0 0 0 0 0 0 0 0 0 0 0 0 -0 -0 0 0 0 0 0 0 -0 -0 0 0 0 0 0 0 0 0 0 0 0 0 0 0 0 0 0 0 0 0 0 0 0 0
0 0 0 0 0 0 0 0 0 0 0 0 0 0 0 0 0 0 -0 0 0 0 -0 -0 0 0 0 0 0 0 0 0 0 0 0 0 0 0 0 0 0 0 0 0 0 -0 -0 -0 0 0 0 0 0 0
0 0 0 0 0 0 0 0 0 0 0 0 0 0 0 0 0 0 -0 0 0 0 -0 -0 -0 0 0 0 0 0 -0 -0 -0 -0 0 0 0 0 0 0 0 0 -0 -0 -0 -0 0 0 0 -0 -0 0 0 0
0 0 0 0 0 0 0 0 0 0 0 0 0 0 0 0 0 0 0 0 0 0 0 -0 -0 -0 0 -0 -0 -0 -0 0 0 -0 -0 -0 -0 -0 -0 -0 -0 0 -0 -0 -0 0 -0 -0 -0 -0 0 0 0 0
0 0 0 0 0 0 0 0 0 0 0 0 0 0 0 0 0 0 0 0 0 0 0 0 -0 -0 0 0 0 0 0 -0 0 0 0 -0 -0 -0 -0 -0 -0 -0 -0 -0 0 0 0 0 0 0 0 0 0 0
0 0 0 0 0 0 0 0 0 0 0 0 0 0 0 0 0 0 0 0 0 0 0 0 0 0 0 0 0 0 0 0 -0 -0 0 -0 0 0 -0 -0 0 0 0 -0 0 0 0 0 0 0 0 0 0 0
0 0 0 0 0 0 0 0 0 0 0 0 0 0 0 0 0 0 0 0 0 0 0 0 0 0 0 0 0 0 0 0 -0 0 0 -0 -0 -0 0 -0 -0 0 0 0 0 0 0 0 0 0 0 0 0 0
0 0 0 0 0 0 0 0 0 0 0 0 0 0 0 0 0 0 0 0 0 0 0 0 0 0 0 0 0 0 0 0 0 0 0 0 0 0 0 0 0 0 0 0 0 0 0 0 0 0 0 0 0 0
0 0 0 0 0 0 0 0 0 0 0 0 0 0 0 0 0 0 0 0 0 0 0 0 0 0 0 0 0 0 0 0 0 0 0 0 0 0 0 0 0 0 0 0 0 0 0 0 0 0 0 0 0 0
0 0 0 0 0 0 0 0 0 0 0 0 0 0 0 0 0 0 0 0 0 0 0 0 0 0 0 0 0 0 0 0 0 0 0 0 0 0 0 0 0 0 0 0 0 0 0 0 0 0 0 0 0 0
0 0 0 0 0 0 0 0 0 0 0 0 0 0 0 0 0 0 0 0 0 0 0 0 0 0 0 0 0 0 0 0 0 0 0 0 0 0 0 0 0 0 0 0 0 0 0 0 0 0 0 0 0 0
0 0 0 0 0 0 0 0 0 0 0 0 0 0 0 0 0 0 0 0 0 0 0 0 0 0 0 0 0 0 0 0 0 0 0 0 0 0 0 0 0 0 0 0 0 0 0 0 0 0 0 0 0 0
0 0 0 0 0 0 0 0 0 0 0 0 0 0 0 0 0 0 0 0 0 0 0 0 0 0 0 0 0 0 0 0 0 0 0 0 0 0 0 0 0 0 0 0 0 0 0 0 0 0 0 0 0 0
0 0 0 0 0 0 0 0 0 0 0 0 0 0 0 0 0 0 0 0 0 0 0 0 0 0 0 0 0 0 0 0 0 0 0 0 0 0 0 0 0 0 0 0 0 0 0 0 0 0 0 0 0 0
0 0 0 0 0 0 0 0 0 0 0 0 0 0 0 0 0 0 0 0 0 0 0 0 0 0 0 0 0 0 0 0 0 0 0 0 0 0 0 0 0 0 0 0 0 0 0 0 0 0 0 0 0 0
0 0 0 0 0 0 0 0 0 0 0 0 0 0 0 0 0 0 0 0 0 0 0 0 0 0 0 0 0 0 0 0 0 0 0 0 0 0 0 0 0 0 0 0 0 0 0 0 0 0 0 0 0 0
0 0 0 0 0 0 0 0 0 0 0 0 0 0 0 0 0 0 0 0 0 0 0 0 0 0 0 0 0 0 0 0 0 0 0 0 0 0 0 0 0 0 0 0 0 0 0 0 0 0 0 0 0 0
0 0 0 0 0 0 0 0 0 0 0 0 0 0 0 0 0 0 0 0 0 0 0 0 0 0 0 0 0 0 0 0 0 0 0 0 0 0 0 0 0 0 0 0 0 0 0 0 0 0 0 0 0 0
0 0 0 0 0 0 0 0 0 0 0 0 0 0 0 0 0 0 0 0 0 0 0 0 0 0 0 0 0 0 0 0 0 0 0 0 0 0 0 0 0 0 0 0 0 0 0 0 0 0 0 0 0 0
0 0 0 0 0 0 0 0 0 0 0 0 0 0 0 0 0 0 0 0 0 0 0 0 0 0 0 0 0 0 0 0 0 0 0 0 0 0 0 0 0 0 0 0 0 0 0 0 0 0 0 0 0 0
0 0 0 0 0 0 0 0 0 0 0 0 0 0 0 0 0 0 0 0 0 0 0 0 0 0 0 0 0 0 0 0 0 0 0 0 0 0 0 0 0 0 0 0 0 0 0 0 0 0 0 0 0 0
0 0 0 0 0 0 0 0 0 0 0 0 0 0 0 0 0 0 0 0 0 0 0 0 0 0 0 0 0 0 0 0 0 0 0 0 0 0 0 0 0 0 0 0 0 0 0 0 0 0 0 0 0 0
0 0 0 0 0 0 0 0 0 0 0 0 0 0 0 0 0 0 0 0 0 0 0 0 0 0 0 0 0 0 0 0 0 0 0 0 0 0 0 0 0 0 0 0 0 0 0 0 0 0 0 0 0 0
0 0 0 0 0 0 0 0 0 0 0 0 0 0 0 0 0 0 0 0 0 0 0 0 0 0 0 0 0 0 0 0 0 0 0 0 0 0 0 0 0 0 0 0 0 0 0 0 0 0 0 0 0 0
0 0 0 0 0 0 0 0 0 0 0 0 0 0 0 0 0 0 0 0 0 0 0 0 0 0 0 0 0 0 0 0 0 0 0 0 0 0 0 0 0 0 0 0 0 0 0 0 0 0 0 0 0 0
0 0 0 0 0 0 0 0 0 0 0 0 0 0 0 0 0 0 0 0 0 0 0 0 0 0 0 0 0 0 0 0 0 0 0 0 0 0 0 0 0 0 0 0 0 0 0 0 0 0 0 0 0 0
0 0 0 0 0 0 0 0 0 0 0 0 0 0 0 0 0 0 0 0 0 0 0 0 0 0 0 0 0 0 0 0 0 0 0 0 0 0 0 0 0 0 0 0 0 0 0 0 0 0 0 0 0 0
0 0 0 0 0 0 0 0 0 0 0 0 0 0 0 0 0 0 0 0 0 0 0 0 0 0 0 0 0 0 0 0 0 0 0 0 0 0 0 0 0 0 0 0 0 0 0 0 0 0 0 0 0 0
0 0 0 0 0 0 0 0 0 0 0 0 0 0 0 0 0 0 0 0 0 0 0 0 0 0 0 0 0 0 0 0 0 0 0 0 0 0 0 0 0 0 0 0 0 0 0 0 0 0 0 0 0 0
Wind_Speed_500mb
68 63 58 56 52 45 39 35 31 27 23 20 17 13 7 8 13 15 11 6 1 10 22 12 11 8 11 7 7 10 7 2 7 7 6 5 4 7 2 6 5 7 9 5 5 5 9 2 4 10 5 43 51 45
75 68 64 58 53 48 42 38 33 30 27 24 20 17 13 7 8 11 7 6 9 10 14 12 10 12 11 11 11 18 4 7 9 8 3 6 3 3 2 4 3 3 9 6 12 8 4 2 6 2 41 56 44 41
84 76 69 64 59 54 48 43 39 34 31 28 24 20 14 11 9 10 11 8 5 12 14 15 12 14 12 11 10 5 6 8 7 5 13 5 5 6 6 9 4 7 12 4 5 5 18 14 6 23 44 43 37 28
88 83 74 68 61 56 52 46 41 40 35 30 26 22 17 13 11 11 14 14 11 9 10 8 17 16 13 11 7 5 5 10 12 8 5 5 4 13 5 4 6 10 19 10 8 13 4 18 27 36 41 33 29 22
96 90 82 73 66 60 55 49 41 41 39 34 28 23 18 14 11 11 12 15 17 7 11 5 14 9 15 13 10 9 11 11 8 5 4 4 6 4 4 2 7 25 14 10 10 24 27 19 45 42 41 37 29 22
90 99 91 83 72 66 58 54 47 41 40 37 31 25 20 15 13 10 9 13 18 18 7 4 4 2 12 15 10 7 9 9 7 5 4 5 5 4 3 5 20 34 39 39 9 19 19 16 37 47 41 34 27 22
90 89 97 94 84 70 61 52 52 47 44 38 34 27 21 19 16 11 4 8 18 19 6 11 2 7 19 19 13 9 1 3 5 4 5 2 5 4 4 8 11 25 28 38 27 23 19 31 25 41 36 32 28 25
94 89 92 96 89 80 68 59 48 45 44 41 38 30 22 19 16 14 10 7 18 11 6 7 3 2 21 9 8 11 6 6 1 2 3 4 4 3 10 29 19 13 25 37 38 36 20 35 35 44 37 31 28 29
96 92 87 89 89 81 75 66 56 45 42 44 39 28 18 18 13 17 17 15 19 6 8 9 10 8 20 7 6 9 6 3 2 2 3 3 4 12 20 25 26 43 28 32 51 47 33 41 43 43 39 37 36 34
101 94 92 83 88 87 78 69 59 51 51 53 41 15 13 18 18 19 14 10 15 11 8 6 17 7 16 9 4 5 4 3 1 7 2 6 8 58 49 26 8 29 37 30 53 50 47 47 48 47 43 33 27 26
104 98 91 89 82 86 86 73 64 62 63 58 24 16 19 28 20 13 7 5 4 3 12 12 9 12 17 7 7 8 6 2 1 7 6 5 7 14 12 24 53 24 43 29 33 33 32 31 40 44 40 35 33 31
105 100 96 91 88 84 84 78 71 84 60 49 21 33 29 13 8 9 3 2 4 10 17 22 15 11 14 10 10 8 6 3 8 1 0 7 9 18 15 9 18 56 39 38 38 27 23 30 26 29 32 35 35 32
110 101 100 93 93 87 86 79 80 90 64 45 20 16 14 8 7 15 15 8 4 22 29 27 12 14 12 8 11 6 6 9 7 1 8 10 16 6 8 15 18 38 54 37 36 35 31 33 30 31 34 36 37 29
114 107 102 97 96 91 89 86 88 94 68 15 18 8 12 6 12 11 12 12 17 25 59 52 20 9 9 7 8 9 4 4 4 2 13 7 7 12 12 13 10 23 54 42 33 39 39 36 32 33 39 41 39 32
120 109 104 100 99 95 90 97 87 92 34 15 15 12 12 12 6 20 23 32 29 66 79 32 18 9 4 8 4 8 5 8 12 10 7 7 12 20 22 25 24 28 34 42 39 39 40 41 41 40 44 44 40 36
121 104 113 108 103 100 98 98 92 74 18 13 15 5 3 8 1 22 30 29 59 78 50 11 10 8 4 10 8 15 14 14 8 8 12 14 21 25 21 17 16 16 14 14 22 30 38 43 45 46 49 50 46 41
128 98 124 115 109 105 117 101 62 24 23 15 13 32 31 12 22 29 38 46 83 72 6 12 12 13 12 6 5 10 11 8 14 23 23 24 24 20 17 18 14 6 7 14 22 30 36 41 46 53 61 59 54 45
125 104 121 122 122 125 114 52 42 30 21 16 13 26 53 9 23 38 36 68 57 33 25 11 20 7 13 14 8 10 33 14 19 24 22 15 9 12 9 20 14 15 19 19 26 36 41 47 56 62 63 61 58 52
132 117 132 135 145 99 36 36 33 18 11 32 24 30 39 20 19 36 46 85 36 39 16 20 7 7 8 16 15 26 36 33 29 22 16 20 19 16 16 24 32 28 27 28 33 38 44 52 60 65 66 65 63 55
139 132 141 151 137 43 20 14 43 17 20 23 34 38 23 16 28 36 55 74 43 24 9 7 9 12 13 15 39 46 29 17 10 11 16 20 18 18 19 23 28 33 39 43 42 45 51 56 60 64 69 70 66 59
124 137 150 151 103 38 20 22 20 23 27 17 42 48 18 40 34 30 35 61 26 14 11 21 29 20 15 44 31 21 9 8 19 32 24 21 21 22 26 31 33 37 42 43 46 51 58 59 57 56 58 59 57 53
111 157 130 103 38 27 15 27 30 32 23 28 44 28 20 14 22 31 44 27 17 33 32 35 42 39 33 41 33 23 26 36 41 42 38 34 35 34 33 32 33 38 43 48 48 51 52 51 50 48 47 46 48 48
147 119 93 41 17 16 13 51 14 18 11 16 35 14 6 13 25 46 18 18 28 34 50 41 50 43 42 41 38 44 58 60 56 51 43 38 31 33 36 39 43 44 45 41 40 43 44 43 44 44 41 41 44 45
121 60 26 31 19 11 31 10 18 17 15 11 15 11 9 15 36 13 8 20 46 42 52 59 61 57 60 61 68 77 80 73 59 44 38 34 34 38 42 43 39 38 36 36 35 37 39 38 38 38 38 38 39 40
20 22 28 12 19 15 11 11 7 8 8 6 9 6 8 18 5 7 7 13 46 63 63 59 63 73 78 79 74 73 69 55 40 26 23 29 35 42 41 39 39 37 35 34 34 38 38 37 34 32 33 35 36 36
12 13 15 16 10 21 15 15 13 13 10 8 5 16 13 7 8 11 10 29 37 49 58 69 76 76 76 74 51 39 32 34 36 42 40 37 36 38 37 34 32 30 33 33 35 38 36 32 32 33 33 33 32 31
13 10 14 44 38 34 17 19 19 12 10 13 11 11 8 11 14 6 15 36 41 48 55 59 55 51 47 38 39 39 40 39 38 37 34 32 29 28 30 33 34 34 36 36 37 35 32 30 29 29 29 29 29 29
12 24 35 32 24 26 13 9 9 11 11 25 26 13 24 18 10 11 15 28 31 33 35 34 33 29 27 28 28 27 27 26 26 25 24 22 22 23 25 28 31 35 36 35 33 30 28 26 23 22 24 25 27 28
14 54 63 37 15 12 7 8 8 9 26 40 10 8 9 10 10 13 16 20 25 26 24 21 17 14 15 16 18 21 23 23 24 24 24 22 20 19 24 29 29 29 29 27 25 23 21 18 16 18 22 24 25 23
39 74 23 23 12 7 4 8 19 39 34 30 28 24 18 16 15 16 15 19 20 18 16 15 14 13 14 17 19 19 19 19 20 21 21 23 21 20 19 16 17 18 17 15 12 11 15 19 22 26 26 24 21 17
44 43 18 15 10 11 41 57 57 55 33 25 30 29 28 21 20 19 16 16 18 18 15 14 13 14 14 15 16 18 16 13 14 14 11 7 5 7 8 8 6 2 3 6 8 10 14 19 21 22 23 19 15 11
18 11 14 12 7 23 17 13 14 18 15 15 15 15 15 13 10 9 12 15 15 16 18 18 17 16 15 14 13 12 11 11 7 4 2 1 2 1 2 6 9 12 15 15 16 17 20 20 21 19 15 10 7 11
23 47 40 20 12 10 11 16 13 12 20 12 14 10 9 10 9 8 13 12 13 15 16 16 16 16 14 12 11 11 11 10 10 12 12 10 11 13 16 17 19 19 20 20 22 22 22 18 14 9 6 9 17 25
Wind_Direction_500mb
197 199 197 196 196 195 193 194 195 195 187 171 155 142 131 136 138 145 167 184 211 110 146 159 143 141 136 157 137 149 74 343 43 66 102 214 130 217 48 237 199 170 134 169 91 62 268 287 101 168 181 142 149 147
197 200 202 200 199 200 201 200 201 205 199 193 179 168 152 153 153 142 139 157 141 141 146 153 148 153 161 149 145 159 141 156 162 102 137 100 143 37 154 261 199 270 185 183 189 214 258 198 292 239 157 150 153 150
199 201 205 208 209 210 209 206 207 209 212 201 201 192 185 168 175 183 164 172 145 115 131 151 155 155 151 150 145 140 174 173 171 146 147 162 154 129 164 244 218 249 190 175 70 248 238 223 128 157 162 153 154 159
200 200 204 206 209 211 211 209 209 211 216 215 211 207 201 198 184 194 184 193 201 138 119 191 186 176 179 171 163 176 169 167 154 147 104 126 146 193 220 211 194 212 151 175 267 258 231 209 186 169 171 171 172 176
203 200 203 207 210 213 211 209 207 210 212 216 215 216 209 208 203 203 202 194 204 197 151 135 175 190 189 183 177 160 166 173 163 146 105 229 177 137 334 340 243 192 180 167 217 213 194 200 198 192 194 196 200 209
203 203 203 207 210 213 220 216 211 209 206 214 213 212 216 212 206 196 229 209 198 187 166 104 145 122 147 158 161 160 206 211 196 203 199 216 185 181 143 234 257 215 210 203 190 176 190 199 191 199 203 201 204 211
204 202 204 207 211 214 219 215 217 209 203 205 213 207 214 219 215 211 245 170 178 174 166 105 50 161 169 169 176 192 241 179 180 206 206 209 184 215 198 235 271 218 219 213 212 183 162 168 176 180 189 193 195 203
206 201 203 205 209 214 213 213 211 208 199 193 207 209 207 211 210 216 221 176 168 176 163 111 71 130 172 169 183 205 216 197 154 220 225 229 220 231 252 237 232 196 210 208 205 206 221 190 178 181 188 199 203 206
206 204 201 202 202 206 211 210 208 197 183 180 198 200 188 192 194 220 198 197 192 201 166 129 139 202 168 141 151 162 212 21 252 177 247 198 258 228 227 216 212 209 194 192 193 199 197 199 192 196 203 207 210 210
204 204 201 201 198 203 207 206 203 189 176 179 177 164 190 186 178 161 166 190 206 209 198 112 133 138 162 146 128 108 167 198 355 255 274 232 258 258 251 234 239 199 196 192 184 195 199 202 206 208 212 221 219 212
204 203 201 197 194 198 205 202 195 176 180 177 178 176 166 155 152 170 167 152 208 310 188 146 148 135 167 125 175 194 191 122 267 263 151 273 271 244 231 226 224 212 206 198 210 222 221 219 215 212 213 209 208 206
202 202 200 197 193 195 199 196 186 178 177 179 171 138 139 174 165 108 220 7 175 218 171 148 144 126 139 140 117 141 153 146 238 352 203 266 252 241 207 199 210 198 194 200 206 203 204 203 202 208 215 215 206 210
198 200 200 196 193 193 195 192 186 182 172 160 176 160 162 166 55 162 189 250 234 177 172 157 140 139 132 139 96 105 115 209 136 152 236 236 271 239 219 223 213 201 202 199 200 203 198 195 201 212 214 206 210 228
193 196 197 195 192 190 190 186 186 185 170 177 167 199 186 208 241 190 180 172 165 161 156 147 117 129 129 92 135 111 237 64 42 308 236 246 261 183 198 188 196 193 193 195 196 201 211 217 219 216 215 215 222 240
191 192 194 194 190 188 185 188 185 181 176 192 183 215 195 210 182 171 160 138 145 158 151 123 98 130 61 100 72 107 62 254 213 231 235 253 181 163 155 144 135 141 173 201 215 222 226 226 227 228 224 226 233 247
188 187 193 191 189 187 183 183 180 180 208 213 224 137 139 131 179 173 166 144 152 153 148 136 119 89 194 137 122 210 146 221 239 221 220 154 151 152 147 143 139 147 161 197 225 234 235 234 236 237 232 235 241 250
182 184 189 188 186 183 179 169 167 173 197 215 224 210 183 196 189 176 177 168 160 161 159 137 128 190 114 77 239 192 206 218 204 174 153 140 141 145 149 158 145 163 239 263 266 258 252 245 241 238 237 240 245 253
183 182 183 181 179 171 172 175 175 192 206 187 172 193 198 205 178 171 177 170 162 191 156 187 134 146 182 182 227 219 219 177 145 139 136 143 173 191 214 196 217 230 232 256 271 270 260 251 248 249 248 246 249 255
180 177 179 177 172 161 162 181 184 176 168 169 175 181 183 192 194 195 180 175 180 179 163 160 123 194 222 218 204 170 161 148 148 164 183 197 200 199 225 236 236 239 251 284 283 276 274 268 262 259 256 253 254 258
179 176 177 175 171 164 155 146 185 157 166 180 175 172 172 185 181 180 176 176 177 179 200 191 216 221 213 192 151 144 144 152 184 228 241 221 217 229 252 258 253 256 264 276 274 270 268 268 267 264 260 257 255 258
170 170 172 172 171 177 160 150 165 169 141 164 172 167 143 152 144 158 165 179 187 218 216 210 216 221 184 168 158 163 156 357 323 289 276 257 259 268 271 263 256 260 265 266 268 268 267 272 278 277 269 262 259 260
166 164 160 167 175 165 161 168 157 140 143 151 161 165 140 158 153 164 164 189 226 218 210 204 201 217 215 194 214 253 284 294 287 275 267 271 278 280 277 274 264 265 270 272 270 269 270 272 274 275 272 264 257 257
159 159 163 164 145 151 135 141 116 140 126 158 147 125 159 159 165 158 190 218 215 217 215 216 212 220 236 244 249 254 263 270 273 272 272 274 273 274 278 275 271 271 272 270 269 269 272 273 272 272 268 257 253 254
159 154 155 160 145 130 150 131 125 115 110 161 158 144 151 142 157 205 229 210 219 220 221 224 226 229 237 243 251 258 263 268 269 268 272 272 272 274 270 267 265 263 260 265 270 274 277 278 275 270 263 255 253 251
136 168 154 133 131 116 117 128 115 106 124 139 107 140 161 157 147 213 223 215 210 219 228 234 237 241 244 252 255 256 261 267 268 264 258 265 267 265 266 266 263 255 254 264 274 279 278 275 272 265 260 257 252 245
129 150 142 148 135 147 164 136 153 144 120 117 99 129 148 130 153 232 201 196 196 207 216 225 231 234 237 242 247 253 254 261 268 270 268 261 259 261 262 258 254 253 258 267 273 275 273 269 268 265 261 250 238 227
135 137 141 164 151 117 88 94 136 112 122 147 163 160 148 164 211 218 180 184 193 201 211 220 228 233 239 244 248 254 257 259 257 258 256 255 253 249 250 253 255 258 263 271 276 277 273 269 265 260 247 234 222 217
128 145 151 155 145 137 113 101 124 157 152 153 134 169 172 183 182 166 180 187 195 204 213 220 227 230 232 236 237 237 237 236 235 235 237 237 237 239 248 257 262 265 269 273 275 272 266 262 256 246 233 219 211 202
128 152 142 139 102 65 85 144 141 107 135 160 123 132 136 101 130 154 164 179 188 199 207 213 217 216 215 215 213 212 216 221 221 221 222 226 233 241 249 255 259 263 268 270 267 259 250 235 219 206 201 197 189 189
145 143 131 137 90 92 12 82 115 130 134 130 116 111 102 104 102 130 149 167 175 185 194 200 200 194 192 189 191 195 204 210 215 219 222 227 233 239 249 260 268 270 272 271 260 241 222 197 186 183 182 178 180 192
134 122 74 56 79 62 105 109 111 111 109 91 99 112 115 122 113 101 123 142 151 157 164 171 173 170 171 179 180 176 178 188 200 206 203 207 228 258 272 277 273 260 158 158 166 176 184 180 175 169 167 174 189 217
61 71 115 104 108 142 100 87 71 66 61 64 64 85 105 104 90 118 112 129 139 150 149 145 141 143 145 144 148 146 134 129 129 105 70 354 333 355 128 130 131 135 142 148 150 150 147 153 154 159 170 190 236 285
82 86 94 105 117 149 150 104 74 85 51 61 52 58 68 87 107 117 120 134 144 141 137 139 142 141 139 136 125 115 111 110 103 103 101 100 105 119 127 132 134 137 138 139 142 145 146 152 160 174 218 276 297 307
Wind_Speed_850mb
68 63 58 56 52 45 39 35 31 27 23 20 17 13 7 8 13 15 11 6 1 10 22 12 11 8 11 7 7 10 7 2 7 7 6 5 4 7 2 6 5 7 9 5 5 5 9 2 4 10 5 43 51 45
75 68 64 58 53 48 42 38 33 30 27 24 20 17 13 7 8 11 7 6 9 10 14 12 10 12 11 11 11 18 4 7 9 8 3 6 3 3 2 4 3 3 9 6 12 8 4 2 6 2 41 56 44 41
84 76 69 64 59 54 48 43 39 34 31 28 24 20 14 11 9 10 11 8 5 12 14 15 12 14 12 11 10 5 6 8 7 5 13 5 5 6 6 9 4 7 12 4 5 5 18 14 6 23 44 43 37 28
88 83 74 68 61 56 52 46 41 40 35 30 26 22 17 13 11 11 14 14 11 9 10 8 17 16 13 11 7 5 5 10 12 8 5 5 4 13 5 4 6 10 19 10 8 13 4 18 27 36 41 33 29 22
96 90 82 73 66 60 55 49 41 41 39 34 28 23 18 14 11 11 12 15 17 7 11 5 14 9 15 13 10 9 11 11 8 5 4 4 6 4 4 2 7 25 14 10 10 24 27 19 45 42 41 37 29 22
90 99 91 83 72 66 58 54 47 41 40 37 31 25 20 15 13 10 9 13 18 18 7 4 4 2 12 15 10 7 9 9 7 5 4 5 5 4 3 5 20 34 39 39 9 19 19 16 37 47 41 34 27 22
90 89 97 94 84 70 61 52 52 47 44 38 34 27 21 19 16 11 4 8 18 19 6 11 2 7 19 19 13 9 1 3 5 4 5 2 5 4 4 8 11 25 28 38 27 23 19 31 25 41 36 32 28 25
94 89 92 96 89 80 68 59 48 45 44 41 38 30 22 19 16 14 10 7 18 11 6 7 3 2 21 9 8 11 6 6 1 2 3 4 4 3 10 29 19 13 25 37 38 36 20 35 35 44 37 31 28 29
96 92 87 89 89 81 75 66 56 45 42 44 39 28 18 18 13 17 17 15 19 6 8 9 10 8 20 7 6 9 6 3 2 2 3 3 4 12 20 25 26 43 28 32 51 47 33 41 43 43 39 37 36 34
101 94 92 83 88 87 78 69 59 51 51 53 41 15 13 18 18 19 14 10 15 11 8 6 17 7 16 9 4 5 4 3 1 7 2 6 8 58 49 26 8 29 37 30 53 50 47 47 48 47 43 33 27 26
104 98 91 89 82 86 86 73 64 62 63 58 24 16 19 28 20 13 7 5 4 3 12 12 9 12 17 7 7 8 6 2 1 7 6 5 7 14 12 24 53 24 43 29 33 33 32 31 40 44 40 35 33 31
105 100 96 91 88 84 84 78 71 84 60 49 21 33 29 13 8 9 3 2 4 10 17 22 15 11 14 10 10 8 6 3 8 1 0 7 9 18 15 9 18 56 39 38 38 27 23 30 26 29 32 35 35 32
110 101 100 93 93 87 86 79 80 90 64 45 20 16 14 8 7 15 15 8 4 22 29 27 12 14 12 8 11 6 6 9 7 1 8 10 16 6 8 15 18 38 54 37 36 35 31 33 30 31 34 36 37 29
114 107 102 97 96 91 89 86 88 94 68 15 18 8 12 6 12 11 12 12 17 25 59 52 20 9 9 7 8 9 4 4 4 2 13 7 7 12 12 13 10 23 54 42 33 39 39 36 32 33 39 41 39 32
120 109 104 100 99 95 90 97 87 92 34 15 15 12 12 12 6 20 23 32 29 66 79 32 18 9 4 8 4 8 5 8 12 10 7 7 12 20 22 25 24 28 34 42 39 39 40 41 41 40 44 44 40 36
121 104 113 108 103 100 98 98 92 74 18 13 15 5 3 8 1 22 30 29 59 78 50 11 10 8 4 10 8 15 14 14 8 8 12 14 21 25 21 17 16 16 14 14 22 30 38 43 45 46 49 50 46 41
128 98 124 115 109 105 117 101 62 24 23 15 13 32 31 12 22 29 38 46 83 72 6 12 12 13 12 6 5 10 11 8 14 23 23 24 24 20 17 18 14 6 7 14 22 30 36 41 46 53 61 59 54 45
125 104 121 122 122 125 114 52 42 30 21 16 13 26 53 9 23 38 36 68 57 33 25 11 20 7 13 14 8 10 33 14 19 24 22 15 9 12 9 20 14 15 19 19 26 36 41 47 56 62 63 61 58 52
132 117 132 135 145 99 36 36 33 18 11 32 24 30 39 20 19 36 46 85 36 39 16 20 7 7 8 16 15 26 36 33 29 22 16 20 19 16 16 24 32 28 27 28 33 38 44 52 60 65 66 65 63 55
139 132 141 151 137 43 20 14 43 17 20 23 34 38 23 16 28 36 55 74 43 24 9 7 9 12 13 15 39 46 29 17 10 11 16 20 18 18 19 23 28 33 39 43 42 45 51 56 60 64 69 70 66 59
124 137 150 151 103 38 20 22 20 23 27 17 42 48 18 40 34 30 35 61 26 14 11 21 29 20 15 44 31 21 9 8 19 32 24 21 21 22 26 31 33 37 42 43 46 51 58 59 57 56 58 59 57 53
111 157 130 103 38 27 15 27 30 32 23 28 44 28 20 14 22 31 44 27 17 33 32 35 42 39 33 41 33 23 26 36 41 42 38 34 35 34 33 32 33 38 43 48 48 51 52 51 50 48 47 46 48 48
147 119 93 41 17 16 13 51 14 18 11 16 35 14 6 13 25 46 18 18 28 34 50 41 50 43 42 41 38 44 58 60 56 51 43 38 31 33 36 39 43 44 45 41 40 43 44 43 44 44 41 41 44 45
121 60 26 31 19 11 31 10 18 17 15 11 15 11 9 15 36 13 8 20 46 42 52 59 61 57 60 61 68 77 80 73 59 44 38 34 34 38 42 43 39 38 36 36 35 37 39 38 38 38 38 38 39 40
20 22 28 12 19 15 11 11 7 8 8 6 9 6 8 18 5 7 7 13 46 63 63 59 63 73 78 79 74 73 69 55 40 26 23 29 35 42 41 39 39 37 35 34 34 38 38 37 34 32 33 35 36 36
12 13 15 16 10 21 15 15 13 13 10 8 5 16 13 7 8 11 10 29 37 49 58 69 76 76 76 74 51 39 32 34 36 42 40 37 36 38 37 34 32 30 33 33 35 38 36 32 32 33 33 33 32 31
13 10 14 44 38 34 17 19 19 12 10 13 11 11 8 11 14 6 15 36 41 48 55 59 55 51 47 38 39 39 40 39 38 37 34 32 29 28 30 33 34 34 36 36 37 35 32 30 29 29 29 29 29 29
12 24 35 32 24 26 13 9 9 11 11 25 26 13 24 18 10 11 15 28 31 33 35 34 33 29 27 28 28 27 27 26 26 25 24 22 22 23 25 28 31 35 36 35 33 30 28 26 23 22 24 25 27 28
14 54 63 37 15 12 7 8 8 9 26 40 10 8 9 10 10 13 16 20 25 26 24 21 17 14 15 16 18 21 23 23 24 24 24 22 20 19 24 29 29 29 29 27 25 23 21 18 16 18 22 24 25 23
39 74 23 23 12 7 4 8 19 39 34 30 28 24 18 16 15 16 15 19 20 18 16 15 14 13 14 17 19 19 19 19 20 21 21 23 21 20 19 16 17 18 17 15 12 11 15 19 22 26 26 24 21 17
44 43 18 15 10 11 41 57 57 55 33 25 30 29 28 21 20 19 16 16 18 18 15 14 13 14 14 15 16 18 16 13 14 14 11 7 5 7 8 8 6 2 3 6 8 10 14 19 21 22 23 19 15 11
18 11 14 12 7 23 17 13 14 18 15 15 15 15 15 13 10 9 12 15 15 16 18 18 17 16 15 14 13 12 11 11 7 4 2 1 2 1 2 6 9 12 15 15 16 17 20 20 21 19 15 10 7 11
23 47 40 20 12 10 11 16 13 12 20 12 14 10 9 10 9 8 13 12 13 15 16 16 16 16 14 12 11 11 11 10 10 12 12 10 11 13 16 17 19 19 20 20 22 22 22 18 14 9 6 9 17 25
Wind_Direction_850mb
197 199 197 196 196 195 193 194 195 195 187 171 155 142 131 136 138 145 167 184 211 110 146 159 143 141 136 157 137 149 74 343 43 66 102 214 130 217 48 237 199 170 134 169 91 62 268 287 101 168 181 142 149 147
197 200 202 200 199 200 201 200 201 205 199 193 179 168 152 153 153 142 139 157 141 141 146 153 148 153 161 149 145 159 141 156 162 102 137 100 143 37 154 261 199 270 185 183 189 214 258 198 292 239 157 150 153 150
199 201 205 208 209 210 209 206 207 209 212 201 201 192 185 168 175 183 164 172 145 115 131 151 155 155 151 150 145 140 174 173 171 146 147 162 154 129 164 244 218 249 190 175 70 248 238 223 128 157 162 153 154 159
200 200 204 206 209 211 211 209 209 211 216 215 211 207 201 198 184 194 184 193 201 138 119 191 186 176 179 171 163 176 169 167 154 147 104 126 146 193 220 211 194 212 151 175 267 258 231 209 186 169 171 171 172 176
203 200 203 207 210 213 211 209 207 210 212 216 215 216 209 208 203 203 202 194 204 197 151 135 175 190 189 183 177 160 166 173 163 146 105 229 177 137 334 340 243 192 180 167 217 213 194 200 198 192 194 196 200 209
203 203 203 207 210 213 220 216 211 209 206 214 213 212 216 212 206 196 229 209 198 187 166 104 145 122 147 158 161 160 206 211 196 203 199 216 185 181 143 234 257 215 210 203 190 176 190 199 191 199 203 201 204 211
204 202 204 207 211 214 219 215 217 209 203 205 213 207 214 219 215 211 245 170 178 174 166 105 50 161 169 169 176 192 241 179 180 206 206 209 184 215 198 235 271 218 219 213 212 183 162 168 176 180 189 193 195 203
206 201 203 205 209 214 213 213 211 208 199 193 207 209 207 211 210 216 221 176 168 176 163 111 71 130 172 169 183 205 216 197 154 220 225 229 220 231 252 237 232 196 210 208 205 206 221 190 178 181 188 199 203 206
206 204 201 202 202 206 211 210 208 197 183 180 198 200 188 192 194 220 198 197 192 201 166 129 139 202 168 141 151 162 212 21 252 177 247 198 258 228 227 216 212 209 194 192 193 199 197 199 192 196 203 207 210 210
204 204 201 201 198 203 207 206 203 189 176 179 177 164 190 186 178 161 166 190 206 209 198 112 133 138 162 146 128 108 167 198 355 255 274 232 258 258 251 234 239 199 196 192 184 195 199 202 206 208 212 221 219 212
204 203 201 197 194 198 205 202 195 176 180 177 178 176 166 155 152 170 167 152 208 310 188 146 148 135 167 125 175 194 191 122 267 263 151 273 271 244 231 226 224 212 206 198 210 222 221 219 215 212 213 209 208 206
202 202 200 197 193 195 199 196 186 178 177 179 171 138 139 174 165 108 220 7 175 218 171 148 144 126 139 140 117 141 153 146 238 352 203 266 252 241 207 199 210 198 194 200 206 203 204 203 202 208 215 215 206 210
198 200 200 196 193 193 195 192 186 182 172 160 176 160 162 166 55 162 189 250 234 177 172 157 140 139 132 139 96 105 115 209 136 152 236 236 271 239 219 223 213 201 202 199 200 203 198 195 201 212 214 206 210 228
193 196 197 195 192 190 190 186 186 185 170 177 167 199 186 208 241 190 180 172 165 161 156 147 117 129 129 92 135 111 237 64 42 308 236 246 261 183 198 188 196 193 193 195 196 201 211 217 219 216 215 215 222 240
191 192 194 194 190 188 185 188 185 181 176 192 183 215 195 210 182 171 160 138 145 158 151 123 98 130 61 100 72 107 62 254 213 231 235 253 181 163 155 144 135 141 173 201 215 222 226 226 227 228 224 226 233 247
188 187 193 191 189 187 183 183 180 180 208 213 224 137 139 131 179 173 166 144 152 153 148 136 119 89 194 137 122 210 146 221 239 221 220 154 151 152 147 143 139 147 161 197 225 234 235 234 236 237 232 235 241 250
182 184 189 188 186 183 179 169 167 173 197 215 224 210 183 196 189 176 177 168 160 161 159 137 128 190 114 77 239 192 206 218 204 174 153 140 141 145 149 158 145 163 239 263 266 258 252 245 241 238 237 240 245 253
183 182 183 181 179 171 172 175 175 192 206 187 172 193 198 205 178 171 177 170 162 191 156 187 134 146 182 182 227 219 219 177 145 139 136 143 173 191 214 196 217 230 232 256 271 270 260 251 248 249 248 246 249 255
180 177 179 177 172 161 162 181 184 176 168 169 175 181 183 192 194 195 180 175 180 179 163 160 123 194 222 218 204 170 161 148 148 164 183 197 200 199 225 236 236 239 251 284 283 276 274 268 262 259 256 253 254 258
179 176 177 175 171 164 155 146 185 157 166 180 175 172 172 185 181 180 176 176 177 179 200 191 216 221 213 192 151 144 144 152 184 228 241 221 217 229 252 258 253 256 264 276 274 270 268 268 267 264 260 257 255 258
170 170 172 172 171 177 160 150 165 169 141 164 172 167 143 152 144 158 165 179 187 218 216 210 216 221 184 168 158 163 156 357 323 289 276 257 259 268 271 263 256 260 265 266 268 268 267 272 278 277 269 262 259 260
166 164 160 167 175 165 161 168 157 140 143 151 161 165 140 158 153 164 164 189 226 218 210 204 201 217 215 194 214 253 284 294 287 275 267 271 278 280 277 274 264 265 270 272 270 269 270 272 274 275 272 264 257 257
159 159 163 164 145 151 135 141 116 140 126 158 147 125 159 159 165 158 190 218 215 217 215 216 212 220 236 244 249 254 263 270 273 272 272 274 273 274 278 275 271 271 272 270 269 269 272 273 272 272 268 257 253 254
159 154 155 160 145 130 150 131 125 115 110 161 158 144 151 142 157 205 229 210 219 220 221 224 226 229 237 243 251 258 263 268 269 268 272 272 272 274 270 267 265 263 260 265 270 274 277 278 275 270 263 255 253 251
136 168 154 133 131 116 117 128 115 106 124 139 107 140 161 157 147 213 223 215 210 219 228 234 237 241 244 252 255 256 261 267 268 264 258 265 267 265 266 266 263 255 254 264 274 279 278 275 272 265 260 257 252 245
129 150 142 148 135 147 164 136 153 144 120 117 99 129 148 130 153 232 201 196 196 207 216 225 231 234 237 242 247 253 254 261 268 270 268 261 259 261 262 258 254 253 258 267 273 275 273 269 268 265 261 250 238 227
135 137 141 164 151 117 88 94 136 112 122 147 163 160 148 164 211 218 180 184 193 201 211 220 228 233 239 244 248 254 257 259 257 258 256 255 253 249 250 253 255 258 263 271 276 277 273 269 265 260 247 234 222 217
128 145 151 155 145 137 113 101 124 157 152 153 134 169 172 183 182 166 180 187 195 204 213 220 227 230 232 236 237 237 237 236 235 235 237 237 237 239 248 257 262 265 269 273 275 272 266 262 256 246 233 219 211 202
128 152 142 139 102 65 85 144 141 107 135 160 123 132 136 101 130 154 164 179 188 199 207 213 217 216 215 215 213 212 216 221 221 221 222 226 233 241 249 255 259 263 268 270 267 259 250 235 219 206 201 197 189 189
145 143 131 137 90 92 12 82 115 130 134 130 116 111 102 104 102 130 149 167 175 185 194 200 200 194 192 189 191 195 204 210 215 219 222 227 233 239 249 260 268 270 272 271 260 241 222 197 186 183 182 178 180 192
134 122 74 56 79 62 105 109 111 111 109 91 99 112 115 122 113 101 123 142 151 157 164 171 173 170 171 179 180 176 178 188 200 206 203 207 228 258 272 277 273 260 158 158 166 176 184 180 175 169 167 174 189 217
61 71 115 104 108 142 100 87 71 66 61 64 64 85 105 104 90 118 112 129 139 150 149 145 141 143 145 144 148 146 134 129 129 105 70 354 333 355 128 130 131 135 142 148 150 150 147 153 154 159 170 190 236 285
82 86 94 105 117 149 150 104 74 85 51 61 52 58 68 87 107 117 120 134 144 141 137 139 142 141 139 136 125 115 111 110 103 103 101 100 105 119 127 132 134 137 138 139 142 145 146 152 160 174 218 276 297 307